FW8197 Weather Reports


time (UTC)temp
C
wind
direction
speed
KPH
gust
KPH
rain 1hr
cm
rain 24hr
cm
rain mn
cm
humidity
%
barometer
mb
20260506044611 3 0 0.0 1.6 0.00 0.00 0.00 86 1016.2
20260506043101 4 0 0.0 0.0 0.00 0.00 0.00 85 1016.2
20260506041609 4 0 0.0 1.6 0.00 0.00 0.00 85 1016.3
20260506034603 5 69 1.6 3.2 0.00 0.00 0.00 84 1016.3
20260506033059 5 89 0.0 4.8 0.00 0.00 0.00 84 1016.5
20260506031600 5 37 3.2 8.0 0.00 0.00 0.00 83 1016.6
20260506024608 5 0 0.0 1.6 0.00 0.00 0.00 84 1016.8
20260506023057 6 62 1.6 4.8 0.00 0.00 0.00 83 1016.7
20260506021557 6 86 1.6 8.0 0.00 0.00 0.00 82 1016.8
20260506020122 6 63 3.2 4.8 0.00 0.00 0.00 82 1016.8
20260506014558 6 83 1.6 6.4 0.00 0.00 0.00 81 1016.8
20260506013059 6 82 0.0 8.0 0.00 0.00 0.00 79 1017.0
20260506011601 7 110 4.8 12.9 0.00 0.00 0.00 79 1017.1
20260506010058 7 63 6.4 17.7 0.00 0.00 0.00 79 1017.1
20260506004557 7 47 4.8 12.9 0.00 0.00 0.00 81 1017.2
20260506003056 7 83 8.0 17.7 0.00 0.00 0.00 81 1017.2
20260506001607 8 34 3.2 14.5 0.00 0.00 0.00 83 1017.0
20260506000123 8 24 6.4 11.3 0.00 0.00 0.00 86 1017.0
20260505234616 8 0 1.6 4.8 0.00 0.00 0.00 89 1017.0
20260505233059 8 0 0.0 0.0 0.00 0.00 0.00 89 1017.0
20260505231600 8 0 0.0 0.0 0.00 0.00 0.00 88 1017.1
20260505230057 8 0 0.0 0.0 0.00 0.00 0.00 88 1017.2
20260505224558 8 0 0.0 0.0 0.00 0.00 0.00 87 1017.1
20260505223104 8 0 0.0 0.0 0.00 0.00 0.00 86 1017.2
20260505221603 8 0 0.0 0.0 0.00 0.00 0.00 85 1017.3
20260505220108 9 0 0.0 0.0 0.00 0.00 0.00 84 1017.3
20260505214605 9 0 0.0 0.0 0.00 0.00 0.00 84 1017.3
20260505213100 9 0 0.0 0.0 0.00 0.00 0.00 84 1017.3
20260505211641 9 0 0.0 0.0 0.00 0.00 0.00 84 1017.3
20260505210057 9 0 0.0 0.0 0.00 0.00 0.00 83 1017.3
20260505204610 10 0 0.0 1.6 0.00 0.00 0.00 82 1017.4
20260505203100 10 0 0.0 1.6 0.00 0.00 0.00 79 1017.3
20260505201556 10 0 0.0 1.6 0.00 0.00 0.00 79 1017.3
20260505200058 10 58 0.0 3.2 0.00 0.00 0.00 78 1017.3
20260505194557 10 0 1.6 3.2 0.00 0.00 0.00 78 1017.3
20260505193055 10 21 1.6 4.8 0.00 0.00 0.00 78 1017.2
20260505191604 11 36 1.6 6.4 0.00 0.00 0.00 78 1017.1
20260505190113 11 35 3.2 6.4 0.00 0.00 0.00 78 1017.0
20260505184557 11 35 1.6 6.4 0.00 0.00 0.00 78 1017.1
20260505183058 11 7 3.2 9.7 0.00 0.00 0.00 77 1017.1
20260505181640 11 59 1.6 4.8 0.00 0.00 0.00 76 1017.1
20260505180107 12 75 1.6 4.8 0.00 0.00 0.00 74 1017.1
20260505174558 12 82 1.6 8.0 0.00 0.00 0.00 71 1017.1
20260505173058 12 65 3.2 8.0 0.00 0.00 0.00 71 1017.1
20260505171603 12 53 6.4 11.3 0.00 0.00 0.00 72 1017.1
20260505170057 12 51 4.8 8.0 0.00 0.00 0.00 72 1017.2
20260505164558 12 66 4.8 9.7 0.00 0.00 0.00 73 1017.2
20260505163054 12 67 3.2 9.7 0.00 0.00 0.00 72 1017.3
20260505161600 12 51 4.8 9.7 0.00 0.00 0.00 73 1017.2
20260505153105 13 113 0.0 6.4 0.00 0.00 0.00 68 1017.3
20260505151603 12 0 0.0 3.2 0.00 0.00 0.00 69 1017.3
20260505140109 11 45 6.4 12.9 0.00 0.00 0.00 72 1017.6
20260505124558 11 314 0.0 3.2 0.00 0.00 0.00 76 1017.6
20260505123101 10 53 4.8 17.7 0.00 0.00 0.00 80 1017.7
20260505121600 11 67 8.0 17.7 0.00 0.00 0.00 78 1017.6
20260505120121 12 260 3.2 9.7 0.00 0.00 0.00 72 1017.6
20260505114558 13 270 3.2 9.7 0.00 0.00 0.00 68 1017.7
20260505113055 12 27 0.0 8.0 0.00 0.00 0.00 74 1017.8
20260505111556 12 4 6.4 11.3 0.00 0.00 0.00 73 1017.9
20260505110112 11 38 4.8 12.9 0.00 0.00 0.00 73 1017.9
20260505101602 10 84 8.0 12.9 0.00 0.00 0.00 77 1018.1
20260505100057 10 356 4.8 11.3 0.00 0.00 0.00 83 1018.0
20260505094556 10 354 3.2 8.0 0.00 0.00 0.00 84 1018.1
20260505093058 10 318 1.6 9.7 0.00 0.00 0.00 83 1018.0
20260505091559 10 1 1.6 8.0 0.00 0.00 0.00 82 1017.9
20260505090059 10 298 3.2 8.0 0.00 0.00 0.00 83 1018.0
20260505084604 10 351 3.2 8.0 0.00 0.00 0.00 84 1017.9
20260505083110 10 338 3.2 9.7 0.00 0.00 0.00 85 1018.0
20260505081554 9 276 3.2 9.7 0.00 0.00 0.00 86 1018.2
20260505080100 8 0 1.6 6.4 0.00 0.00 0.00 87 1018.3
20260505074558 8 335 3.2 6.4 0.00 0.00 0.00 88 1018.4
20260505073101 8 18 3.2 9.7 0.00 0.00 0.00 89 1018.2
20260505071558 8 313 3.2 6.4 0.00 0.00 0.00 89 1018.4
20260505070100 8 344 1.6 4.8 0.00 0.00 0.00 90 1018.3
20260505064644 8 0 1.6 9.7 0.00 0.00 0.00 90 1018.4
20260505063104 7 285 0.0 6.4 0.00 0.00 0.00 90 1018.4
20260505061555 7 316 1.6 4.8 0.00 0.00 0.00 91 1018.2
20260505060103 7 0 0.0 3.2 0.00 0.00 0.00 90 1018.3
20260505054558 7 335 0.0 3.2 0.00 0.00 0.00 90 1018.3
20260505053059 7 0 0.0 4.8 0.00 0.00 0.00 90 1018.1